Location: Newark
(47.1042°N, 8.6744°E)
Time: 02:37:43
(UTC+00:00)

N. Korean satellite - Pass Details

Date: 20 October 2019
Orbit: 456 x 506 km, 97.2° (Epoch: 20 November)

Event Time Altitude Azimuth Distance (km) Brightness Sun altitude
Rises 16:58:20 0° 187° (S) 2,463 10.4 -5.6°
Reaches altitude 10° 17:00:29 10° 197° (SSW) 1,596 9.6 -6.0°
Maximum altitude 17:03:37 33° 263° (W) 801 8.6 -6.5°
Drops below altitude 10° 17:06:47 10° 329° (NNW) 1,622 9.5 -7.0°
Sets 17:09:00 0° 339° (NNW) 2,509 10.4 -7.4°
